Back to catalog

ONEWEB-0542

AliveCommunicationsPO
NORAD 54646·PAYLOAD·🇬🇧 United Kingdom

Launched Dec 8, 2022 from Cape Canaveral Space Force Station

Loading…

Next Passes (next 24 hours)

TLE

FreshSource: CelesTrak SupGP

Epoch: Sep 14, 2026, 08:14 UTC

1 54646C 22166E   26257.34321020  .00002522  00000+0  61136-2 0  2575
2 54646  87.9278 226.2281 0002373  87.4929  22.5424 13.21822260    12

Track ONEWEB-0542 in real time with AllMySat

Download on the App Store